Preview of NWS' New Version of Forecast
This preview is not operational and should not be used for support decisions.

Regional Weather Roundup (RWR)

Issued by National Weather Service (NWS)

                            
000
ASUS46 KSEW 181810
RWRWA 

WASHINGTON REGIONAL WEATHER ROUNDUP
NATIONAL WEATHER SERVICE SEATTLE WA
1000 AM PST MON FEB 18 2019

NOTE:"FAIR" INDICATES FEW OR NO CLOUDS BELOW 12,000 FEET WITH NO 
SIGNIFICANT WEATHER AND/OR OBSTRUCTIONS TO VISIBILITY.

WAZ507-509-555>559-181900-
SEATTLE, TACOMA, EVERETT, AND VICINITY
  
CITY           SKY/WX    TMP DP  RH WIND       PRES   REMARKS
EVERETT        CLOUDY    36  34  92 SE3       30.39S                  
6HR MIN TEMP:  31; 6HR MAX TEMP:  36;                                

BOEING FIELD   CLOUDY    38  34  85 SE8       30.42R                  
6HR MIN TEMP:  35; 6HR MAX TEMP:  38; 6HR PCP:  0.07;                

RENTON         CLOUDY    37  34  89 SE5       30.42R                  
6HR MIN TEMP:  35; 6HR MAX TEMP:  37; 6HR PCP: TRACE;                

SEATAC AIRPORT CLOUDY    38  35  89 S5        30.40R                  
6HR MIN TEMP:  35; 6HR MAX TEMP:  38; 6HR PCP:  0.04;                

JBLM-MCCHORD   CLOUDY    37  37 100 S3        30.40S                  
6HR MIN TEMP:  32; 6HR MAX TEMP:  37;                                

PUYALLUP       CLOUDY    37  36  93 CALM      30.40R                  
BREMERTON      CLOUDY    36  36 100 SW3       30.40S                  
6HR MIN TEMP:  32; 6HR MAX TEMP:  36;                                

JBLM-FT LEWIS  NOT AVBL                                               
TACOMA NARROWS CLOUDY    38  35  89 S5        30.40S                  
6HR MIN TEMP:  35; 6HR MAX TEMP:  38; 6HR PCP: TRACE;                

$$
 
WAZ001-503-506-510-514-515-181900-
NORTH INTERIOR
  
CITY           SKY/WX    TMP DP  RH WIND       PRES   REMARKS
BELLINGHAM     CLOUDY    33  20  58 N5        30.41S                  
6HR MIN TEMP:  25; 6HR MAX TEMP:  33;                                

FRIDAY HARBOR  CLOUDY    39  28  64 E6        30.41S                  
6HR MIN TEMP:  31; 6HR MAX TEMP:  39;                                

EASTSOUND      CLOUDY    37  30  75 VRB5      30.40S                  
PORT ANGELES   CLOUDY    37  30  75 W5        30.39S                  
6HR MIN TEMP:  34; 6HR MAX TEMP:  37;                                

EDIZ HOOK      CLOUDY    41  32  72 CALM      30.40S                  
6HR MIN TEMP:  38; 6HR MAX TEMP:  41;                                

PORT TOWNSEND  CLOUDY    37  37 100 SE6       30.39S                  
NAS WHIDBEY    NOT AVBL                                               
ARLINGTON      CLOUDY    33  31  92 N3        30.42R                  
6HR MIN TEMP:  28; 6HR MAX TEMP:  33;                                

BURLINGTON     CLOUDY    34  25  69 NE6       30.42S                  
$$
 
WAZ020-022-039-040-504-511-512-181900-
SOUTHWEST INTERIOR
  
CITY           SKY/WX    TMP DP  RH WIND       PRES   REMARKS
SHELTON        MOSUNNY   34  33  96 CALM      30.38S                  
6HR MIN TEMP:  29; 6HR MAX TEMP:  34; 6HR PCP: TRACE;                

OLYMPIA        PTSUNNY   36  33  89 SW6       30.41R                  
6HR MIN TEMP:  30; 6HR MAX TEMP:  36;                                

CHEHALIS       CLOUDY    37  34  87 S6        30.42S                  
KELSO          CLOUDY    35  32  88 SE9       30.45R                  
6HR MIN TEMP:  31; 6HR MAX TEMP:  35;                                

VANCOUVER      CLOUDY    33  32  96 CALM      30.45S FOG              
6HR MIN TEMP:  30; 6HR MAX TEMP:  33;                                

SCAPPOOSE, OR  CLOUDY    34  31  88 CALM      30.45S                  
6HR MIN TEMP:  30; 6HR MAX TEMP:  34;                                

PORTLAND, OR   FOG       34  33  96 CALM      30.45S VSB 1/4          
6HR MIN TEMP:  28; 6HR MAX TEMP:  34;                                

$$
 
WAZ021-516-517-181900-
WASHINGTON COAST
  
CITY           SKY/WX    TMP DP  RH WIND       PRES   REMARKS
FORKS          LGT RAIN  37  34  89 CALM      30.39S                  
6HR MIN TEMP:  30; 6HR MAX TEMP:  38; 6HR PCP:  0.01;                

HOQUIAM        CLOUDY    38  36  92 E3        30.41R FOG              
6HR MIN TEMP:  30; 6HR MAX TEMP:  38;                                

ASTORIA, OR    CLOUDY    39  37  92 CALM      30.42R                  
6HR MIN TEMP:  32; 6HR MAX TEMP:  39; 6HR PCP: TRACE;                

$$
 
WAZ019-023-024-040-567>569-181900-
CASCADE MOUNTAINS AND COLUMBIA GORGE
  
CITY           SKY/WX    TMP DP  RH WIND       PRES   REMARKS
STAMPEDE PASS  CLOUDY    24  21  88 VRB5      30.21R                  
6HR MIN TEMP:  23; 6HR MAX TEMP:  24;                                

TROUTDALE, OR  CLOUDY    36  34  92 NE3       30.45S FOG              
6HR MIN TEMP:  32; 6HR MAX TEMP:  36;                                

HOOD RIVER, OR CLOUDY    34  30  86 CALM      30.42S                  
THE DALLES, OR CLOUDY    34  33  96 CALM      30.43S FOG              
6HR MIN TEMP:  32; 6HR MAX TEMP:  35; 6HR PCP:  0.03;                

$$

WAZ026-027-041>044-520-521-181900-
EAST SLOPES
  
CITY           SKY/WX    TMP DP  RH WIND       PRES   REMARKS
OMAK           SUNNY     23  11  60 N10       30.38F WCI  12          
6HR MIN TEMP:  16; 6HR MAX TEMP:  23;                                

WENATCHEE      CLOUDY    22  14  71 SW3       30.37R                  
6HR MIN TEMP:  18; 6HR MAX TEMP:  22;                                

ELLENSBURG     CLOUDY    31  19  61 E6        30.32R                  
6HR MIN TEMP:  26; 6HR MAX TEMP:  31;                                

YAKIMA         CLOUDY    27  21  78 CALM      30.37F                  
6HR MIN TEMP:  19; 6HR MAX TEMP:  27;                                

SUNNYSIDE ARPT MOCLDY    28  19  68 E7        30.40                   
6HR MIN TEMP:  19; 6HR MAX TEMP:  29;                                

YAKIMA TC      FAIR      25  21  83 NW5       30.34S                  
6HR MIN TEMP:  23; 6HR MAX TEMP:  26;                                

$$

WAZ028-034-035-181900-
COLUMBIA BASIN
  
CITY           SKY/WX    TMP DP  RH WIND       PRES   REMARKS
EPHRATA        PTSUNNY   23  12  62 NE3       30.36S                  
6HR MIN TEMP:  14; 6HR MAX TEMP:  23;                                

MOSES LAKE     MOSUNNY   16  10  77 CALM      30.38S                  
                                      6HR PCP: TRACE;                

PASCO          PTSUNNY   26  18  71 N6        30.44S                  
6HR MIN TEMP:  16; 6HR MAX TEMP:  27;                                

RICHLAND ARPT  CLOUDY    28  20  74 N5        30.43                   
6HR MIN TEMP:  17; 6HR MAX TEMP:  28;                                

HERMISTON, OR  SUNNY     32  20  61 SE3       30.41S                  
6HR MIN TEMP:  20; 6HR MAX TEMP:  32;                                

$$

WAZ036>038-181900-
NORTHEAST WASHINGTON
  
CITY           SKY/WX    TMP DP  RH WIND       PRES   REMARKS
SPOKANE GEIGER PTSUNNY   18   5  57 CALM      30.28S                  
6HR MIN TEMP:   4; 6HR MAX TEMP:  18;                                

SPOKANE FELTS  PTSUNNY   18   9  68 CALM      30.32F                  
6HR MIN TEMP:   5; 6HR MAX TEMP:  19;                                

FAIRCHILD AFB  PTSUNNY   14   5  66 NE3       30.27S                  
6HR MIN TEMP:   4; 6HR MAX TEMP:  14;                                

COEURDALENE,ID MOSUNNY   20   7  57 E7        30.30S                  
6HR MIN TEMP:   3; 6HR MAX TEMP:  20;                                

DEER PARK      CLOUDY    12  11  95 S3        30.30S                  
6HR MIN TEMP:  -5; 6HR MAX TEMP:  12;                                

$$

WAZ029>033-181900-
SOUTHEAST WASHINGTON
  
CITY           SKY/WX    TMP DP  RH WIND       PRES   REMARKS
PULLMAN        PTSUNNY   12   7  80 S3        30.28R                  
6HR MIN TEMP:   6; 6HR MAX TEMP:  13;                                

LEWISTON, ID   PTSUNNY   27  13  55 VRB5      30.35R                  
6HR MIN TEMP:  19; 6HR MAX TEMP:  27;                                

WALLA WALLA    CLOUDY    27  18  69 SW6       30.37S                  
6HR MIN TEMP:  24; 6HR MAX TEMP:  27;                                

PENDLETON, OR  SUNNY     28  19  69 S7        30.35S                  
6HR MIN TEMP:  24; 6HR MAX TEMP:  28;                                

$$